FW8246 Weather Reports


time (UTC)temp
C
wind
direction
speed
KPH
gust
KPH
rain 1hr
cm
rain 24hr
cm
rain mn
cm
humidity
%
barometer
mb
20260507234546 12 0 0.0 3.2 0.00 0.05 0.00 84 1013.9
20260507233100 13 0 0.0 1.6 0.00 0.05 0.00 84 1014.0
20260507231553 13 0 0.0 1.6 0.00 0.05 0.00 84 1014.2
20260507230050 13 0 0.0 0.0 0.00 0.05 0.00 84 1014.5
20260507224558 13 0 0.0 0.0 0.00 0.10 0.00 82 1014.5
20260507223050 14 0 0.0 0.0 0.00 0.10 0.00 78 1014.7
20260507221552 14 0 0.0 0.0 0.00 0.10 0.00 78 1014.6
20260507220054 13 0 0.0 0.0 0.00 0.10 0.00 80 1014.7
20260507214546 13 0 0.0 0.0 0.00 0.10 0.10 79 1014.8
20260507213103 14 0 0.0 1.6 0.00 0.10 0.10 78 1014.8
20260507211552 14 0 0.0 1.6 0.00 0.10 0.10 76 1014.8
20260507210054 13 0 0.0 1.6 0.00 0.10 0.10 80 1014.8
20260507204552 13 0 0.0 3.2 0.00 0.10 0.10 80 1014.9
20260507203054 15 0 0.0 4.8 0.00 0.10 0.10 77 1015.0
20260507201546 14 0 0.0 1.6 0.00 0.10 0.10 77 1014.9
20260507200051 15 0 0.0 3.2 0.00 0.10 0.10 74 1015.1
20260507194616 15 0 0.0 4.8 0.00 0.10 0.10 74 1015.1
20260507193049 15 24 0.0 4.8 0.00 0.10 0.10 76 1015.0
20260507191551 14 0 0.0 3.2 0.00 0.10 0.10 79 1015.1
20260507190054 15 0 0.0 6.4 0.00 0.10 0.10 76 1014.9
20260507184552 15 0 0.0 6.4 0.00 0.10 0.10 79 1014.9
20260507183054 15 0 0.0 4.8 0.00 0.10 0.10 81 1014.8
20260507181559 15 0 0.0 0.0 0.00 0.10 0.10 80 1014.9
20260507180054 16 0 0.0 0.0 0.00 0.10 0.10 81 1015.0
20260507174557 17 0 0.0 0.0 0.00 0.10 0.10 77 1015.1
20260507173122 17 0 0.0 0.0 0.00 0.10 0.10 77 1015.2
20260507171557 17 0 0.0 0.0 0.00 0.10 0.10 75 1015.0
20260507170110 18 0 0.0 0.0 0.00 0.10 0.10 67 1015.0
20260507164555 18 0 0.0 0.0 0.00 0.10 0.10 69 1014.7
20260507163049 19 0 0.0 0.0 0.00 0.10 0.10 63 1014.9
20260507161602 20 0 0.0 0.0 0.00 0.10 0.10 62 1014.9
20260507160047 20 0 0.0 1.6 0.00 0.10 0.10 61 1014.9
20260507154551 20 0 0.0 4.8 0.00 0.10 0.10 60 1014.9
20260507153057 20 0 1.6 9.7 0.00 0.10 0.10 59 1014.8
20260507151548 20 0 0.0 6.4 0.00 0.10 0.10 59 1014.9
20260507150059 21 0 0.0 6.4 0.00 0.10 0.10 61 1014.9
20260507144556 20 305 0.0 4.8 0.00 0.10 0.10 59 1014.9
20260507143051 20 227 0.0 3.2 0.00 0.10 0.10 62 1015.0
20260507141633 20 0 0.0 4.8 0.00 0.10 0.10 59 1015.2
20260507140058 20 0 0.0 4.8 0.00 0.10 0.10 66 1015.3
20260507134556 20 294 0.0 3.2 0.00 0.10 0.10 64 1015.7
20260507133051 20 255 1.6 6.4 0.00 0.10 0.10 60 1015.7
20260507131548 20 292 0.0 4.8 0.00 0.10 0.10 67 1015.8
20260507130055 20 252 1.6 4.8 0.00 0.10 0.10 67 1015.9
20260507124553 20 0 0.0 3.2 0.00 0.10 0.10 65 1016.2
20260507123055 20 0 0.0 6.4 0.00 0.10 0.10 68 1016.2
20260507121550 20 248 0.0 3.2 0.00 0.10 0.10 69 1016.4
20260507120100 20 0 0.0 6.4 0.00 0.10 0.10 66 1016.4
20260507114547 20 0 0.0 6.4 0.00 0.10 0.10 64 1016.5
20260507113053 20 0 0.0 4.8 0.00 0.10 0.10 67 1016.6
20260507111549 20 232 0.0 6.4 0.00 0.10 0.10 65 1016.5
20260507110103 20 269 1.6 9.7 0.00 0.10 0.10 69 1016.6
20260507104554 19 275 0.0 3.2 0.00 0.10 0.10 70 1016.6
20260507103052 18 0 0.0 4.8 0.00 0.10 0.10 73 1016.7
20260507101559 18 0 0.0 4.8 0.00 0.10 0.10 72 1017.1
20260507100053 18 0 0.0 6.4 0.00 0.10 0.10 74 1017.0
20260507094600 18 278 0.0 6.4 0.00 0.10 0.10 73 1017.0
20260507093050 17 0 0.0 3.2 0.00 0.10 0.10 75 1016.6
20260507091549 17 0 0.0 4.8 0.00 0.10 0.10 74 1016.7
20260507090050 17 0 0.0 4.8 0.00 0.10 0.10 76 1016.8
20260507084548 17 0 0.0 0.0 0.00 0.10 0.10 77 1017.1
20260507083049 16 0 0.0 3.2 0.00 0.10 0.10 78 1016.8
20260507081549 16 0 0.0 6.4 0.00 0.10 0.10 79 1016.9
20260507080054 15 0 0.0 3.2 0.00 0.10 0.10 80 1017.0
20260507074549 15 0 0.0 4.8 0.00 0.13 0.10 79 1017.2
20260507073116 14 0 0.0 3.2 0.00 0.13 0.10 79 1017.3
20260507071548 13 0 0.0 1.6 0.00 0.13 0.10 87 1017.2
20260507070047 14 0 0.0 6.4 0.00 0.13 0.10 86 1017.1
20260507064605 14 0 0.0 3.2 0.00 0.23 0.10 85 1016.8
20260507063110 13 0 0.0 3.2 0.00 0.23 0.10 82 1016.3
20260507061556 13 0 0.0 4.8 0.00 0.23 0.10 87 1016.5
20260507060052 12 0 0.0 0.0 0.00 0.23 0.10 91 1016.6
20260507054556 12 0 0.0 0.0 0.00 0.23 0.10 92 1016.7
20260507053055 11 0 0.0 0.0 0.00 0.23 0.10 93 1017.1
20260507051553 11 0 0.0 0.0 0.00 0.23 0.10 93 1016.8
20260507050058 11 0 0.0 0.0 0.00 0.23 0.10 93 1016.5
20260507044553 11 0 0.0 0.0 0.00 0.25 0.10 93 1016.6
20260507043052 11 0 0.0 0.0 0.00 0.25 0.10 93 1016.5
20260507041550 11 0 0.0 0.0 0.00 0.25 0.10 93 1016.4
20260507040105 11 0 0.0 0.0 0.00 0.25 0.10 92 1016.4
20260507034605 11 0 0.0 0.0 0.00 0.25 0.10 92 1016.3
20260507033104 11 0 0.0 0.0 0.00 0.25 0.10 92 1016.4
20260507031551 11 0 0.0 1.6 0.00 0.25 0.10 92 1016.3
20260507030048 11 0 0.0 0.0 0.00 0.25 0.10 92 1016.2
20260507024557 11 0 0.0 0.0 0.00 0.28 0.10 92 1016.3
20260507023051 11 0 0.0 0.0 0.00 0.28 0.10 91 1016.2
20260507021552 11 0 0.0 0.0 0.00 0.28 0.10 91 1016.2
20260507020050 11 0 0.0 3.2 0.00 0.28 0.10 91 1016.3
20260507014552 11 163 1.6 6.4 0.03 0.28 0.10 92 1016.3
20260507013103 11 80 1.6 8.0 0.03 0.28 0.10 92 1016.5
20260507011548 11 0 0.0 6.4 0.03 0.28 0.10 93 1016.4
20260507010051 11 0 0.0 3.2 0.03 0.28 0.10 93 1016.5
20260507004551 11 93 0.0 4.8 0.00 0.25 0.08 93 1016.6
20260507003053 11 0 0.0 0.0 0.00 0.25 0.08 93 1016.5
20260507001607 11 0 0.0 0.0 0.00 0.25 0.08 93 1016.6
20260507000057 11 0 0.0 0.0 0.03 0.25 0.08 93 1016.7